Showing default

OPS 3151, 9803

Orbit data source: Space-Track

OPS 3151, 9803 is a payload satellite owned by SAMSO (US) in GEO that was launched on Sun, 06 Feb 1977 UTC via a TITAN IIIC launch vehicle from the Air Force Eastern Test Range (AFETR). Payload-class satellites include a variety of spacecraft equipped with specific instruments for various scientific and technological missions. These include communications satellites like Starlink; space stations such as the ISS; scientific satellites like the Hubble; Earth observation satellites from companies like Planet Labs, Umbra, and HawkEye 360; GPS; miniature CubeSats for education and research; and military/defense satellites.

Not visible in the next 10 days
Identifier
9803, 1977-007A
Orbit
GEO
Country
Flag of USUS
Related business
Manufacturer
TRW
Mission
Spacecraft
Bus & Motor
DSP P2, MRE-4
Mass
1,040 kg wet, ~980 kg dry
Launch date (UTC)
1977-02-06 (49 years ago)
Launch vehicle
TITAN IIIC
Launch site
Air Force Eastern Test Range (AFETR)
Object type
Payload
Rocket body
Debris
Shape & HBR
Unknown
Radar Cross Section
RCS unknown

Expand to show TLE details & history
Last TLE update: 15 hours ago

TLE from 15 hours ago
0 OPS 3151
1 09803U 77007A   25351.49220184 -.00000031  00000-0  00000-0 0  9992
2 09803   5.1908 285.8822 0080686  32.5170 347.4238  0.97529061 22886
Epoch: 2025-12-17T11:48Z
TLE epoch observation values (Epoch: 2025-12-17T11:48:46.238Z)
Latitude
1.74068°
Longitude
41.96648°
Altitude
36,235.181 km
Speed
3.07 km/s
True Right ascension
20h 22m 04s
True Declination
1° 44' 20"
Sunlit
Object was in daylight at epoch
Visualization orbit readout
Latitude
Unknown
Longitude
Unknown
Altitude
Unknown
Speed
Unknown
Apparent Right ascension
Unknown
Apparent Declination
Unknown
Sunlit
N/A
Visualization observer readout
Local Sidereal Time
01:43:35
Azimuth
Unknown
Elevation
Unknown
Doppler factor
Unknown
Orbital elements
Apogee altitude
36,921.05 km
Perigee altitude
36,227.915 km
Semi-major axis
42,952.619 km
Eccentricity
0.00807
Inclination
5.1908°
RAAN
285.8822°
Arg. of periapsis
32.517°
True anomaly
347.22048°
Mean anomaly
347.4238°
Eccentric anomaly
347.32234°
Mean motion
0.24381 °/min
Orbital period
1,476.54 mins
BSTAR
0
Loading maneuver chart data...
Computing Atmospheric mass density...
Loading historical data...
Loading historical data...
Loading historical data...
Loading historical data...
Loading historical data...
Loading historical data...
Loading historical data...
Other satellites on launch #7 in the year 1977 (1977-02-06 UTC)

Documentation

Showing up to 5 results
|